Location: Poughquag
(41.6090°N, 73.6820°W)
Time: 12:49:07
(UTC-04:00)

Transit 4A - Pass Details

Date: 30 May 2020
Orbit: 866 x 978 km, 66.8° (Epoch: 06 July)

Event Time Altitude Azimuth Distance (km) Brightness Sun altitude
Rises 10:22:33 0° 335° (NNW) 3,556 10.7 53.0°
Reaches altitude 10° 10:25:19 10° 346° (NNW) 2,629 10.2 53.5°
Maximum altitude 10:30:48 33° 49° (NE) 1,530 9.8 54.4°
Drops below altitude 10° 10:36:23 10° 112° (ESE) 2,685 11.1 55.4°
Sets 10:39:14 0° 122° (ESE) 3,641 11.5 55.9°
